Flag for Germany Weather past 2 weeks in Euskirchen, North Rhine-Westphalia, Germany

Now
57 °F

Partly sunny.


Feels Like: 57 °F
Forecast: 47 / 64 °F
Wind: 5 mph from South

Location: Noervenich

Current Time: May 28, 2015 at 8:36:31 AM

Latest Report: May 28, 2015 at 7:20 AM


Visibility: N/A

Pressure: 29.98 "Hg

Humidity: 63%

Dew point: 45 °F

Location of EuskirchenLocation

Historic Weather in Euskirchen — Graph

°F

Euskirchen temperature yesterday

Maximum temperature yesterday: 64 °F (at 7:20 PM)
Minimum temperature yesterday: 46 °F (at 12:20 AM)
Average temperature yesterday: 55 °F

Past Weeks' High & Low Weather Summary

 TemperatureHumidityPressure
High70 °F (May 18, 3:20 PM)100% (May 15, 1:20 AM)30.33 "Hg (May 15, 1:20 AM)
Low39 °F (May 21, 5:20 AM)35% (May 18, 4:20 PM)29.65 "Hg (May 18, 7:20 PM)
Average55 °F67%30.07 "Hg
* Reported May 13 7:20 AM — May 28 7:20 AM, Euskirchen, Weather by CustomWeather, © 2015

Note: Actual official high and low records may vary slightly from our data, if they occured in-between our weather recording intervals... More about our weather records

Advertising

Euskirchen weather history for previous 24 hours

 ConditionsComfort  
Time TempWeatherWind HumidityBarometerVisibility
7:20 AM
Thu, May 28
57 °FPartly sunny.5 mph63%29.98 "HgN/A
6:20 AM55 °FPartly cloudy.6 mph63%29.98 "HgN/A
5:20 AM55 °FPartly cloudy.6 mph63%29.98 "HgN/A
4:20 AM55 °FPartly cloudy.5 mph63%30.01 "HgN/A
3:20 AM54 °FPartly cloudy.6 mph67%30.01 "HgN/A
2:20 AM54 °FPartly cloudy.6 mph67%30.04 "HgN/A
1:20 AM54 °FPartly cloudy.7 mph63%30.04 "HgN/A
12:20 AM54 °FPartly cloudy.7 mph63%30.07 "HgN/A
11:20 PM
Wed, May 27
55 °FPassing clouds.3 mph59%30.07 "HgN/A
10:20 PM55 °FBroken clouds.5 mph59%30.09 "HgN/A
9:20 PM57 °FBroken clouds.3 mph55%30.12 "HgN/A
8:20 PM61 °FPartly sunny.5 mph48%30.12 "HgN/A
7:20 PM64 °FPartly sunny.3 mph40%30.12 "HgN/A
6:20 PM63 °FScattered clouds.3 mph42%30.15 "HgN/A
5:20 PM63 °FScattered clouds.3 mph42%30.18 "HgN/A
4:20 PM61 °FPartly sunny.2 mph45%30.18 "HgN/A
3:20 PM61 °FBroken clouds.2 mph45%30.21 "HgN/A
2:20 PM61 °FBroken clouds.2 mph45%30.24 "HgN/A
1:20 PM59 °FScattered clouds.3 mph48%30.24 "HgN/A
12:20 PM55 °FBroken clouds.2 mph51%30.27 "HgN/A
11:20 AM55 °FPartly sunny.1 mph47%30.27 "HgN/A
10:20 AM54 °FPartly sunny.2 mph51%30.27 "HgN/A
9:20 AM54 °FScattered clouds.1 mph58%30.27 "HgN/A
8:20 AM52 °FPartly sunny.2 mph72%30.27 "HgN/A
Weather by CustomWeather, © 2015

See weather overviewHow to use our weather pages